Location: Champs
(48.8539°N, 2.6040°E)
Time: 20:28:06
(UTC+00:00)

ATLAS CENTAUR R/B - Pass Details

Date: 01 June 2022
Orbit: 443 x 688 km, 64.6° (Epoch: 07 June)

Event Time Altitude Azimuth Distance (km) Brightness Sun altitude
Rises 20:50:24 0° 321° (NW) 3,064 7.6 -8.8°
Reaches altitude 10° 20:52:48 10° 324° (NW) 2,136 6.0 -9.0°
Maximum altitude 20:57:41 68° 48° (NE) 720 1.9 -9.5°
Enters shadow 21:01:50 13° 131° (SE) 1,847 3.3 -10.0°
